User: anonymous   Login
Location: McDonald Observatory
(30.6717°N, 104.0221°W)
Time: 02:57:27
(UTC-05:00)
Language:

Cosmos 1484 Rocket - Orbit

View from above orbital plane
View from above orbital plane
View from above satellite
View from above satellite

Ground track
Ground track

The orbit data is extracted from the following two-line orbital elements,

1 14208U 83075B   16144.49558116  .00000716  00000-0  47190-4 0  9992
2 14208  97.3559 164.8546 0040911  37.1781 323.2269 15.09921168788698
Epoch (UTC): 23 May 2016 11:53:38
Eccentricity: 0.0040911
inclination: 97.3559°
perigee height: 508 km
apogee height: 565 km
right ascension of ascending node: 164.8546°
argument of perigee: 37.1781°
revolutions per day: 15.09921168
mean anomaly at epoch: 323.2269°
orbit number at epoch: 78869

The dashed part of the orbit path shows where the satellite is in the earth's shadow,  

DLR